[Iaude] MPEC V190: 2023 VN6 [a=1.99,e=0.54,i=10.6,H=23.4]
    mpec at marsden.cfa.harvard.edu 
    mpec at marsden.cfa.harvard.edu
       
    Fri Nov 10 21:47:54 EST 2023
    
    
  
M.P.E.C. 2023-V190                            Issued 2023 November 11, 02:46 UT
     The Minor Planet Electronic Circulars contain information on unusual
         minor planets, routine data on comets and natural satellites,
         and occasional editorial announcements.  They are published
    on behalf of Division F of the International Astronomical Union by the
          Minor Planet Center, Smithsonian Astrophysical Observatory,
                          Cambridge, MA 02138, U.S.A.
			  
             Prepared using the Tamkin Foundation Computer Network
                              MPC at CFA.HARVARD.EDU
            URL https://www.minorplanetcenter.net/    ISSN 1523-6714
                                    2023 VN6                                    
Observations:
     K23V06N* C2023 11 09.35574423 47 07.990+20 10 59.99         21.66wXEV190F51
     K23V06N  C2023 11 09.37163523 47 06.099+20 10 11.80         21.80wXEV190F51
     K23V06N  C2023 11 09.38450723 47 04.630+20 09 32.85         22.00wXEV190F51
     K23V06N  C2023 11 09.39871923 47 02.951+20 08 49.20         21.51wXEV190F51
     K23V06N $C2023 11 10.85886623 44 40.220+18 52 55.67         22.2 GVEV190J04
     K23V06N $C2023 11 10.88114323 44 37.607+18 51 43.61         21.8 GVEV190J04
     K23V06N 1C2023 11 10.89399 23 44 35.03 +18 50 43.1          20.6 VXEV190033
     K23V06N 1C2023 11 10.89757 23 44 34.64 +18 50 31.2          20.6 VXEV190033
     K23V06N $C2023 11 10.89873523 44 35.510+18 50 46.73         21.8 GVEV190J04
     K23V06N 1C2023 11 10.90116 23 44 34.28 +18 50 19.6          20.9 VXEV190033
     K23V06N KC2023 11 11.07825123 44 18.12 +18 40 51.6          21.4 GVEV190H21
     K23V06N KC2023 11 11.08114023 44 17.81 +18 40 41.4          21.0 GVEV190H21
Observer details:
033 Karl Schwarzschild Observatory, Tautenburg.  Observers S. Melnikov, C.
    Hogner, F. Ludwig, M. Hartmann, B. Stecklum.  Measurer B. Stecklum.
    1.34-m f/3 Schmidt + CCD.
F51 Pan-STARRS 1, Haleakala.  Observers J. Bulger, T. Lowe, P. Minguez, A.
    Schultz, I. Smith.  Measurers K. Chambers, T. de Boer, J. Fairlamb, H.
    Gao, M. Huber, C.-C. Lin, E. Magnier, Y. Ramanjooloo, R. Wainscoat, R.
    Weryk.  1.8-m Ritchey-Chretien + CCD.
H21 Astronomical Research Observatory, Westfield.  Observer R. Holmes.
    Measurers T. Linder, R. Holmes, L. Horn.  1.3-m f/4.0 astrograph + CCD.
J04 ESA Optical Ground Station, Tenerife.  Observers D. Abreu, F. Ocana, M.
    Micheli, L. Conversi.  Measurers F. Ocana, M. Micheli, R. Kresken.
    1.0-m f/4.4 reflector + CCD.
Orbital elements:
2023 VN6                                                 Earth MOID = 0.0190 AU
Epoch 2023 Sept. 13.0 TT = JDT 2460200.5                MPC                     
M 321.47131              (2000.0)            P               Q                  
n   0.35114604     Peri.  225.20925     -0.21694768     -0.96370030             
a   1.9898066      Node   237.92160     +0.93945628     -0.16280117             
e   0.5398569      Incl.   10.58260     +0.26524631     -0.21160695             
P   2.81           H   23.45          G   0.15           U   9                  
Residuals in seconds of arc
231109 F51  0.0   0.0     231110 J04  0.1-  0.1+    231110 J04  0.3-  0.1+
231109 F51  0.2-  0.0     231110 J04  0.0   0.1-    231110 033  0.5+  0.1+
231109 F51  0.3+  0.2+    231110 033  0.1-  0.1+    231111 H21  0.1-  0.3+
231109 F51  0.0   0.2-    231110 033  0.0   0.1-    231111 H21  0.2+  0.4-
Ephemeris:
2023 VN6                 a,e,i = 1.99, 0.54, 11                  q = 0.9156
Date    TT    R. A. (2000) Decl.     Delta      r    Elong.  Phase     V
2023 10 12    00 34 22.9 +31 06 30   0.3721  1.3444   154.8    18.4    22.9
...
2023 10 27    00 10 22.5 +27 56 18   0.2643  1.2292   149.5    24.2    22.1
...
2023 11 04    23 56 19.5 +24 01 49   0.2166  1.1700   141.9    31.5    21.8
...
2023 11 10    23 46 04.8 +19 38 26   0.1845  1.1275   134.5    38.8    21.6
2023 11 11    23 44 25.6 +18 45 27   0.1795  1.1206   133.1    40.2    21.6
2023 11 12    23 42 47.5 +17 49 31   0.1745  1.1138   131.7    41.6    21.5
...
2023 11 18    23 33 20.9 +11 01 25   0.1464  1.0742   122.4    51.0    21.3
...
2023 11 26    23 20 56.2 -02 32 41   0.1139  1.0260   106.9    67.0    21.2
...
2023 12 11    22 34 49.5 -49 23 55   0.08549 0.9551    67.3   107.9    22.1
A. U. Tomatic                (C) Copyright 2023 MPC           M.P.E.C. 2023-V190
    
    
More information about the Iaude
mailing list